User: anonymous   Login
Location: Donzy-le-Pr�
(47.3659°N, 3.1107°E)
Time: 23:50:59
(UTC+00:00)
Language:

Cosmos 2084 Rocket - Orbit

View from above orbital plane
View from above orbital plane
View from above satellite
View from above satellite

Ground track
Ground track

The orbit data is extracted from the following two-line orbital elements,

1 20666U 90055D   21138.19122848  .00000116  00000-0  28566-4 0  9998
2 20666  62.7866  46.0011 0094480  31.5037 329.1665 14.92488898675251
Epoch (UTC): 18 May 2021 04:35:22
Eccentricity: 0.0094480
inclination: 62.7866°
perigee height: 524 km
apogee height: 656 km
right ascension of ascending node: 46.0011°
argument of perigee: 31.5037°
revolutions per day: 14.92488898
mean anomaly at epoch: 329.1665°
orbit number at epoch: 67525

The dashed part of the orbit path shows where the satellite is in the earth's shadow,  

DLR